Location: *
(43.0409°N, 0.1694°E)
Time: 13:27:14
(UTC+00:00)

CZ-2C R/B - Pass Details

Date: 03 October 2023
Orbit: 666 x 780 km, 98.3° (Epoch: 01 December)

Event Time Altitude Azimuth Distance (km) Brightness Sun altitude
Rises 03:37:25 0° 12° (NNE) 3,117 6.1 -26.1°
Reaches altitude 10° 03:39:43 10° 12° (NNE) 2,177 5.2 -25.7°
Enters shadow 03:44:26 83° 300° (WNW) 698 2.1 -24.9°
